Change the Weather History Date:

Tuesday, September 10, 2013

  Actual Average Record
Temperature  
Mean Temperature 78 °F 70 °F  
Max Temperature 87 °F 77 °F 97 °F (1983)
Min Temperature 68 °F 63 °F 43 °F (1883)
Degree Days  
Heating Degree Days 0 1  
Month to date heating degree days 0 1  
Since 1 July heating degree days 0 3  
Cooling Degree Days 13 6  
Month to date cooling degree days 81 68  
Year to date cooling degree days 1174 1022  
Growing Degree Days 27 (Base 50)    
Moisture  
Dew Point 66 °F    
Average Humidity 71    
Maximum Humidity 84    
Minimum Humidity 57    
Precipitation  
Precipitation 0.01 in 0.13 in 1.38 in (1999)
Month to date precipitation 0.09 1.32  
Year to date precipitation 35.10 34.56  
Snow  
Snow 0.00 in 0.00 in 0.00 in (2002)
Month to date snowfall 0.0 0.0  
Since 1 July snowfall 0.0 0.0  
Snow Depth 0.00 in    
Sea Level Pressure  
Sea Level Pressure 30.13 in    
Wind  
Wind Speed 6 mph (WSW)    
Max Wind Speed 12 mph    
Max Gust Speed 22 mph    
Visibility 9 miles    
Events      
T = Trace of Precipitation, MM = Missing Value Source: NWS Daily Summary

Daily Weather History Graph

Daily Weather History Graph

Search for Another Location

Airport or City:

Trip Planner

Search our weather history database for the weather conditions in past years. The results will help you decide how hot, cold, wet, or windy it might be!

Date:

Astronomy

Sep. 10, 2013 Rise Set
Actual Time 6:31 AM EDT 7:12 PM EDT
Civil Twilight 6:04 AM EDT 7:40 PM EDT
Nautical Twilight 5:31 AM EDT 8:13 PM EDT
Astronomical Twilight 4:57 AM EDT 8:46 PM EDT
Moon 11:56 AM EDT (9/10) 10:11 PM EDT (9/10)
Length of Visible Light 13h 36m
Length of Day
12h 41m
Waxing Crescent, 28% of the Moon is Illuminated
Sep 10
Waxing Crescent
Sep 12
First Quarter
Sep 19
Full
Sep 26
Last Quarter
Oct 4
New

Hourly Weather History & Observations

Time (EDT) Temp. Heat Index Dew Point Humidity Pressure Visibility Wind Dir Wind Speed Gust Speed Precip Events Conditions
12:51 AM 69.1 °F - 57.9 °F 68% 30.16 in 10.0 mi Variable 3.5 mph - N/A   Overcast
1:51 AM 69.1 °F - 59.0 °F 70% 30.16 in 10.0 mi North - - N/A   Overcast
2:42 AM 69.1 °F - 60.1 °F 73% 30.17 in 10.0 mi Variable 3.5 mph - N/A   Overcast
2:51 AM 69.1 °F - 60.1 °F 73% 30.15 in 10.0 mi Variable 4.6 mph - N/A   Overcast
3:02 AM 69.1 °F - 60.1 °F 73% 30.17 in 10.0 mi Variable 4.6 mph - N/A   Overcast
3:51 AM 69.1 °F - 60.1 °F 73% 30.14 in 10.0 mi Variable 3.5 mph - N/A   Overcast
4:51 AM 69.1 °F - 61.0 °F 75% 30.14 in 10.0 mi Calm Calm - N/A   Overcast
5:51 AM 68.0 °F - 63.0 °F 84% 30.14 in 10.0 mi WSW 9.2 mph - 0.01 in   Overcast
6:51 AM 70.0 °F - 63.0 °F 78% 30.15 in 10.0 mi Variable 4.6 mph - N/A   Overcast
7:42 AM 70.0 °F - 64.0 °F 81% 30.17 in 10.0 mi WSW 9.2 mph - N/A   Overcast
7:51 AM 70.0 °F - 64.0 °F 81% 30.14 in 10.0 mi SW 9.2 mph - N/A   Overcast
8:14 AM 71.1 °F - 64.0 °F 78% 30.17 in 10.0 mi Variable 6.9 mph 19.6 mph N/A   Overcast
8:51 AM 72.0 °F - 64.9 °F 78% 30.16 in 10.0 mi Variable 4.6 mph - N/A   Overcast
9:51 AM 73.9 °F - 64.9 °F 73% 30.17 in 9.0 mi Variable 3.5 mph - N/A   Mostly Cloudy
10:12 AM 75.9 °F - 66.0 °F 71% 30.17 in 9.0 mi North - - N/A   Scattered Clouds
10:25 AM 77.0 °F - 66.0 °F 69% 30.18 in 9.0 mi Calm Calm - N/A   Mostly Cloudy
10:51 AM 77.0 °F - 66.0 °F 69% 30.16 in 9.0 mi North - - N/A   Overcast
11:43 AM 78.1 °F - 66.9 °F 68% 30.17 in 8.0 mi Variable 6.9 mph - N/A   Scattered Clouds
11:51 AM 77.0 °F - 66.0 °F 69% 30.13 in 8.0 mi Variable 4.6 mph - N/A   Partly Cloudy
12:42 PM 80.1 °F 82.3 °F 66.9 °F 64% 30.15 in 8.0 mi Calm Calm - N/A   Mostly Cloudy
12:51 PM 79.0 °F - 66.9 °F 66% 30.12 in 7.0 mi Variable 5.8 mph - N/A   Mostly Cloudy
1:08 PM 80.1 °F 82.3 °F 66.9 °F 64% 30.14 in 7.0 mi Variable 3.5 mph - N/A   Scattered Clouds
1:51 PM 81.0 °F 83.8 °F 68.0 °F 65% 30.08 in 7.0 mi WSW 12.7 mph 19.6 mph N/A   Clear
2:51 PM 84.9 °F 88.2 °F 68.0 °F 57% 30.06 in 7.0 mi SW 8.1 mph 19.6 mph N/A   Clear
3:51 PM 86.0 °F 90.1 °F 69.1 °F 57% 30.06 in 7.0 mi Variable 5.8 mph - N/A   Clear
4:51 PM 86.0 °F 90.7 °F 70.0 °F 59% 30.05 in 7.0 mi WSW 6.9 mph - N/A   Clear
5:51 PM 84.9 °F 89.4 °F 70.0 °F 61% 30.06 in 7.0 mi Variable 5.8 mph - N/A   Clear
6:51 PM 84.0 °F 88.4 °F 70.0 °F 63% 30.07 in 7.0 mi WSW 3.5 mph - N/A   Clear
7:51 PM 82.9 °F 87.0 °F 70.0 °F 65% 30.08 in 8.0 mi WSW 4.6 mph - N/A   Clear
8:51 PM 82.0 °F 85.9 °F 70.0 °F 67% 30.09 in 8.0 mi Variable 5.8 mph - N/A   Clear
9:51 PM 82.0 °F 85.9 °F 70.0 °F 67% 30.09 in 8.0 mi Variable 4.6 mph - N/A   Clear
10:51 PM 81.0 °F 84.9 °F 71.1 °F 72% 30.10 in 7.0 mi SW 6.9 mph - N/A   Clear
11:51 PM 80.1 °F 83.6 °F 71.1 °F 74% 30.11 in 7.0 mi SW 5.8 mph - N/A   Clear